Location: NJAA Observatory
(40.6819°N, 74.8979°W)
Time: 12:18:56
(UTC-04:00)

Iridium 84 - Visible Passes

Search period start: 18 April 2014 00:00
Search period end: 28 April 2014 00:00
Orbit: 776 x 779 km, 86.4° (Epoch: 18 April)

Date Brightness Start Highest point End Pass type
(mag) Time Alt. Az. Time Alt. Az. Time Alt. Az.
18 Apr 8.6 05:12:45 10° NE 05:16:07 17° ENE 05:19:28 10° ESE visible
21 Apr 8.1 05:12:12 10° NNE 05:16:24 24° ENE 05:20:35 10° SE visible
22 Apr 8.7 04:40:03 10° NE 04:42:32 13° ENE 04:45:01 10° ESE visible
24 Apr 7.4 05:11:53 10° NNE 05:16:38 35° E 05:21:21 10° SE visible
25 Apr 8.3 04:39:09 10° NNE 04:42:51 19° ENE 04:46:32 10° ESE visible
26 Apr 8.9 04:08:20 10° ENE 04:08:56 10° ENE 04:09:32 10° ENE visible
27 Apr 6.6 05:11:44 10° N 05:16:49 50° E 05:21:51 10° SSE visible
